GFSGBSN_con_mucape_192.txt.gz
CAPE
87 107 106 97 94 8 6 16 28 8 1 0 0 0 9 6 3 0 0 0 0 0 0 0 0 0 0 0 0 0 0 0 0 0 0 0 0 0 0 0 0 0 0 0 0 0 0
114 94 116 93 113 0 3 6 30 9 2 3 0 0 8 8 2 0 0 0 0 0 0 0 0 0 0 0 0 0 0 0 0 0 0 0 0 0 0 0 0 0 0 0 0 0 0
125 85 84 107 106 65 6 3 12 20 7 4 0 0 4 9 6 1 0 0 0 0 0 0 0 0 0 0 0 0 0 0 0 0 0 0 0 0 0 0 0 0 0 0 0 0 0
68 136 100 93 95 86 0 3 3 27 12 8 7 0 0 6 5 2 0 0 0 0 0 0 0 0 0 0 0 0 0 0 0 0 0 0 0 0 0 0 0 0 0 0 0 0 0
88 136 153 99 98 82 118 0 2 7 16 15 15 1 0 6 6 4 0 0 0 0 0 0 0 0 0 0 0 0 0 0 0 0 0 0 0 0 0 0 0 0 0 0 0 0 0
173 177 158 121 119 101 118 0 2 2 12 24 16 15 0 0 7 6 3 0 0 0 0 0 0 0 0 0 0 0 0 0 0 0 0 0 0 0 0 0 0 0 0 0 0 0 0
402 327 314 178 123 132 137 0 1 1 7 15 14 18 1 0 9 7 6 1 0 0 0 0 0 0 0 0 0 0 0 0 0 0 0 0 0 0 0 0 0 0 0 0 0 0 0
382 414 372 265 188 159 154 122 0 1 1 5 4 35 18 1 13 10 1 0 0 0 0 0 0 0 0 0 0 0 0 0 0 0 0 0 0 0 0 0 0 0 0 0 0 0 0
364 346 379 326 231 167 148 125 0 1 1 4 8 44 32 6 25 19 1 0 0 0 0 0 0 0 0 0 0 0 0 0 0 0 0 0 0 0 0 0 0 0 0 0 0 0 0
366 316 306 321 221 189 121 120 104 1 1 1 5 29 57 13 47 12 6 0 0 0 0 0 0 0 0 0 0 0 0 0 0 0 0 0 0 0 0 0 0 0 0 0 0 0 0
286 307 225 251 209 185 149 121 105 0 0 1 21 29 56 0 17 10 2 0 0 0 0 0 0 0 0 0 0 0 0 0 0 0 0 0 0 0 0 0 0 0 0 0 0 0 0
115 251 234 204 184 141 143 115 101 0 1 1 24 3 22 27 8 6 0 0 10 0 0 0 0 0 0 0 0 0 0 0 0 0 0 0 0 0 0 0 0 0 0 0 0 0 0
1 116 206 182 185 187 158 97 60 0 0 0 8 1 1 5 4 2 0 2 0 0 0 0 0 0 0 0 0 0 0 0 0 0 0 0 0 0 0 0 0 0 0 0 0 0 0
4 7 107 172 189 214 189 128 54 0 0 1 0 8 55 0 12 0 0 1 0 0 0 0 0 0 0 0 0 0 0 0 0 0 0 0 0 0 0 0 0 0 0 0 0 0 0
0 1 113 178 196 195 188 129 82 43 0 0 0 0 33 0 14 0 27 0 0 0 0 0 0 0 0 0 0 0 0 0 0 0 0 0 0 0 0 0 0 0 0 0 0 0 0
49 137 200 204 213 228 175 137 98 69 62 3 0 0 0 4 5 25 0 0 0 0 0 0 0 0 0 0 0 0 0 0 0 0 0 0 0 0 0 0 0 0 0 0 0 0 0
4 73 175 194 195 171 188 180 89 71 84 14 78 0 0 54 0 0 4 0 0 0 0 0 0 0 0 0 0 0 0 0 0 0 0 0 0 0 0 0 0 0 0 0 0 0 0
0 0 15 39 115 141 146 133 120 73 62 12 39 0 37 35 0 0 0 0 0 0 0 0 0 0 0 4 0 0 0 0 0 0 0 0 0 0 0 0 0 3 0 0 0 0 0
0 0 1 9 8 45 80 99 85 77 65 23 25 0 65 46 0 0 0 0 0 0 0 0 0 0 0 0 0 0 0 12 1 0 0 5 0 0 0 0 7 0 0 0 0 0 0
0 0 0 0 0 0 50 47 82 79 67 24 13 0 0 0 0 0 0 0 0 0 0 0 0 0 0 0 0 0 0 6 0 8 0 2 0 0 0 0 0 0 0 0 0 0 0
57 0 0 0 0 0 12 49 58 69 81 19 19 26 11 0 0 0 0 0 0 0 0 0 0 0 0 0 0 0 0 0 0 16 0 0 0 0 0 0 0 0 15 0 0 0 0
35 52 24 0 0 0 4 45 68 66 83 6 14 19 16 0 0 0 0 0 0 0 0 0 0 0 0 0 0 0 0 0 0 4 0 3 0 0 0 0 0 3 2 9 3 0 3
17 31 60 34 0 0 0 7 33 96 35 14 0 0 15 8 6 0 0 0 0 0 0 0 0 0 0 0 0 0 0 0 0 0 0 0 10 0 0 8 0 0 0 9 0 6 0
20 12 19 33 12 0 0 2 7 23 12 0 0 0 0 0 7 1 0 0 0 0 0 0 0 0 0 0 0 0 0 0 0 0 0 0 18 0 0 5 0 0 0 1 1 4 1
29 14 8 9 11 6 0 0 0 25 36 2 0 0 0 4 6 1 0 0 0 7 2 0 0 0 0 0 0 0 0 0 0 0 0 0 0 0 0 0 0 0 0 0 0 0 0
19 15 11 4 3 3 9 1 0 0 0 1 0 0 17 1 0 0 0 9 10 14 4 0 1 0 0 0 0 0 0 0 0 1 0 1 1 0 1 3 0 0 0 0 0 0 0
18 10 10 10 2 0 0 3 7 1 0 0 0 0 0 0 0 0 12 9 0 0 0 0 0 0 0 0 0 0 0 0 0 0 0 0 0 0 1 0 0 0 0 0 0 0 0
19 12 4 6 7 1 0 0 0 0 0 5 2 0 0 0 0 0 0 0 0 0 0 0 0 0 0 0 0 0 0 0 0 0 0 0 0 0 0 1 0 0 0 0 0 0 0
8 12 8 5 5 2 0 0 0 0 0 1 0 0 0 0 0 0 0 0 0 0 5 0 0 2 0 2 0 0 0 0 0 0 0 0 0 1 0 0 0 0 0 0 0 0 0

GFSGBSN_con_mucape_195.txt.gz
CAPE
63 53 80 68 75 92 87 27 1 8 16 4 7 3 0 4 14 2 2 0 0 0 0 0 0 0 0 0 0 0 0 0 0 0 0 0 0 0 0 0 0 0 0 0 0 0 0
72 62 69 75 75 82 86 73 0 2 16 4 5 4 8 0 27 6 2 0 0 0 0 0 0 0 0 0 0 0 0 0 0 0 0 0 0 0 0 0 0 0 0 0 0 0 0
81 83 78 64 75 79 78 84 71 0 3 8 1 4 5 3 6 14 3 0 0 0 0 0 0 0 0 0 0 0 0 0 0 0 0 0 0 0 0 0 0 0 0 0 0 0 0
71 74 76 74 65 71 62 73 74 56 4 8 12 5 3 16 5 11 3 0 0 0 0 0 0 0 0 0 0 0 0 0 0 0 0 0 0 0 0 0 0 0 0 0 0 0 0
76 74 80 61 69 55 66 73 81 78 0 1 4 7 6 14 1 13 8 1 0 0 0 0 0 0 0 0 0 0 0 0 0 0 0 0 0 0 0 0 0 0 0 0 0 0 0
101 79 75 72 58 66 71 69 79 50 42 0 1 11 9 28 0 14 24 8 0 0 0 0 0 0 0 0 0 0 0 0 0 0 0 0 0 0 0 0 0 0 0 0 0 0 0
107 130 119 109 64 88 87 91 97 69 48 0 2 4 7 25 0 19 45 25 6 3 0 0 0 0 0 0 0 0 0 0 0 0 0 0 0 0 0 0 0 0 0 0 0 0 0
286 296 319 200 203 137 122 100 118 88 30 8 2 3 10 9 13 26 53 7 1 0 0 0 0 0 0 0 0 0 0 0 0 0 0 0 0 0 0 0 0 0 0 0 0 0 0
33 146 269 352 401 254 152 108 85 85 91 5 7 0 5 16 38 48 19 13 0 0 0 0 0 0 0 0 0 0 0 0 0 0 0 0 0 0 0 0 0 0 0 0 0 0 0
0 39 59 327 384 364 259 144 128 62 40 8 0 1 1 34 38 8 28 27 0 0 0 0 0 0 0 0 0 0 0 0 0 0 0 0 0 0 0 0 0 0 0 0 0 0 0
0 0 52 0 318 260 228 144 116 147 55 74 0 1 11 27 28 16 17 17 7 0 0 0 0 0 0 0 0 0 0 0 0 0 0 0 0 0 0 0 0 0 0 0 0 0 0
0 14 13 92 237 203 203 158 136 111 145 105 0 2 0 8 28 0 8 30 26 0 0 0 0 0 0 0 0 0 0 0 0 0 0 0 0 0 0 0 0 0 0 0 0 0 0
16 3 5 196 238 222 201 148 137 130 124 100 0 1 0 0 25 0 2 38 0 0 0 0 0 0 0 0 0 0 0 0 0 0 0 0 0 0 0 0 0 0 0 0 0 0 0
79 0 8 194 256 232 191 138 140 170 77 81 0 0 0 0 23 2 3 6 0 0 0 0 0 0 0 0 0 0 0 0 0 0 0 0 0 0 0 0 0 0 0 0 0 0 0
0 101 50 129 190 201 180 173 147 162 67 0 2 0 1 0 0 14 20 0 0 0 0 0 0 0 0 0 0 0 0 0 0 0 0 0 0 0 0 0 0 0 0 0 0 0 0
9 20 52 86 102 88 152 160 152 145 59 58 0 0 0 35 0 4 11 0 0 0 0 0 0 0 0 0 0 0 0 0 0 0 0 0 0 0 0 0 0 0 0 0 0 0 0
3 10 19 22 61 133 167 221 161 102 60 71 0 0 0 84 0 2 0 0 0 0 0 0 0 0 0 0 0 0 0 0 0 0 0 0 0 0 0 0 0 0 0 0 0 0 0
0 0 2 0 2 49 158 193 197 113 53 8 0 0 57 92 0 0 0 0 0 0 0 0 0 0 0 0 0 0 0 0 0 0 0 0 0 0 0 0 0 0 0 0 0 0 0
13 0 0 1 0 0 10 124 176 119 58 0 0 0 0 79 0 0 0 0 0 0 0 0 0 0 0 0 0 0 0 0 0 0 0 0 0 0 0 0 0 0 0 0 0 0 0
48 23 0 0 0 0 0 0 94 96 68 0 0 0 5 0 0 0 0 0 0 0 0 0 0 0 0 0 0 0 0 0 1 5 0 5 0 0 0 0 0 0 0 0 0 0 0
43 44 22 0 0 0 0 5 58 106 59 0 0 0 24 0 0 0 0 0 0 0 0 0 0 0 0 0 0 0 0 15 44 32 40 45 0 0 0 0 0 0 0 0 0 0 0
33 46 65 0 0 0 0 4 59 87 64 0 5 0 7 0 0 0 0 0 0 0 0 0 0 0 0 0 0 0 0 0 0 24 32 35 0 0 0 0 0 0 0 0 0 0 0
16 24 54 4 0 0 0 62 93 121 67 0 0 13 16 0 0 0 0 0 0 0 0 0 0 0 0 0 0 0 0 0 0 0 0 5 0 0 0 0 0 0 0 0 0 0 18
13 12 28 33 7 0 2 3 105 102 13 25 0 1 36 0 0 0 0 0 0 0 0 0 0 0 0 0 0 0 0 0 0 0 11 0 0 0 0 0 0 0 0 0 0 1 6
11 12 16 24 1 0 0 0 10 43 89 1 0 0 17 12 0 0 0 0 0 0 0 0 0 0 0 0 0 0 0 0 0 0 0 0 0 0 0 0 0 0 0 0 0 0 0
28 21 16 13 17 5 8 0 9 0 5 2 0 0 0 23 28 1 0 0 0 1 0 0 0 0 0 0 0 0 0 0 0 0 1 0 0 0 0 0 0 0 0 0 0 0 0
21 22 16 12 9 8 6 7 0 0 2 20 0 7 4 4 0 6 3 0 4 0 2 0 0 0 0 0 0 0 0 0 0 0 0 0 0 0 0 0 0 0 0 0 0 0 0
22 20 10 11 12 6 3 1 0 4 4 10 4 0 4 2 0 0 0 5 1 12 27 1 0 1 0 0 0 0 0 0 0 0 0 0 0 0 0 0 0 0 0 0 0 0 0
2 21 7 8 10 5 2 0 0 2 0 0 0 0 0 0 1 0 0 0 0 0 1 6 5 0 0 0 0 0 0 0 0 0 0 0 0 0 0 0 0 0 0 0 0 0 0

GFSGBSN_con_mucape_198.txt.gz
CAPE
43 41 47 49 56 67 42 53 54 39 15 8 5 3 3 3 7 5 14 1 3 0 0 0 0 0 0 0 0 0 0 0 0 0 0 0 0 0 0 0 0 0 0 0 0 0 0
78 74 72 70 63 57 46 62 53 34 41 0 7 3 3 8 5 3 12 7 6 0 0 0 0 0 0 0 0 0 0 0 0 0 0 0 0 0 0 0 0 0 0 0 0 0 0
74 78 74 57 43 63 68 60 53 57 40 31 0 7 5 2 6 9 5 14 3 1 0 0 0 0 0 0 0 0 0 0 0 0 0 0 0 0 0 0 0 0 0 0 0 0 0
59 80 68 52 44 29 44 42 55 54 57 51 7 0 2 0 6 9 6 17 12 1 0 0 0 0 0 0 0 0 0 0 0 0 0 0 0 0 0 0 0 0 0 0 0 0 0
65 96 83 74 51 37 30 38 37 60 55 51 30 0 1 4 6 14 8 19 26 5 0 0 0 0 0 0 0 0 0 0 0 0 0 0 0 0 0 0 0 0 0 0 0 0 0
62 62 56 89 79 68 48 53 50 54 65 50 6 12 0 4 4 10 25 27 55 25 5 2 0 0 0 0 0 0 0 0 0 0 0 0 0 0 0 0 0 0 0 0 0 0 0
0 0 17 46 88 79 85 74 66 52 49 71 11 6 12 1 4 11 45 49 34 8 21 0 0 0 0 0 0 0 0 0 0 0 0 0 0 0 0 0 0 0 0 0 0 0 0
0 0 0 41 62 93 91 115 72 59 65 65 56 12 42 1 2 11 60 7 4 2 7 14 0 0 0 0 0 0 0 0 0 0 0 0 0 0 0 0 0 0 0 0 0 0 0
0 0 0 0 28 57 203 262 114 77 79 67 36 5 43 3 0 5 36 1 11 16 2 1 0 0 0 0 0 0 0 0 0 0 0 0 0 0 0 0 0 0 0 0 0 0 0
0 0 0 0 0 21 141 303 215 118 81 74 63 12 33 0 0 4 25 0 37 24 0 0 0 0 0 0 0 0 0 0 0 0 0 0 0 0 0 0 0 0 0 0 0 0 0
0 0 2 56 26 14 67 290 268 193 117 79 53 31 28 0 1 0 7 14 31 43 0 0 0 0 0 0 0 0 0 0 0 0 0 0 0 0 0 0 0 0 0 0 0 0 0
0 0 99 65 23 12 52 101 161 195 126 81 21 26 82 33 0 27 18 49 76 12 0 0 0 0 0 0 0 0 0 0 0 0 0 0 0 0 0 0 0 0 0 0 0 0 0
3 0 57 120 58 80 85 140 181 241 136 119 22 18 19 16 0 0 20 36 0 1 0 0 0 0 0 0 0 0 0 0 0 0 0 0 0 0 0 0 0 0 0 0 0 0 0
1 0 5 103 75 219 281 212 256 211 172 124 48 42 51 45 0 0 2 14 11 0 0 0 0 0 0 0 0 0 0 0 0 0 0 0 0 0 0 0 0 0 0 0 0 0 0
0 9 12 16 3 102 167 270 302 188 152 110 52 0 0 0 0 0 0 3 9 0 0 0 0 0 0 0 0 0 0 0 0 0 0 0 0 0 0 0 0 0 0 0 0 0 0
0 1 10 2 2 28 131 187 195 171 140 100 37 0 0 3 0 0 0 0 0 0 0 0 0 0 0 0 0 0 0 0 0 0 0 0 0 0 0 0 0 0 0 0 0 0 0
29 0 0 1 0 4 8 78 167 161 142 84 10 0 0 0 0 0 0 0 0 0 0 0 0 0 0 0 0 0 0 0 0 0 0 0 0 0 0 0 0 0 0 0 0 0 0
73 0 0 0 0 0 0 18 81 84 91 35 0 0 0 3 0 0 0 0 0 0 0 0 0 0 0 0 0 0 0 0 0 0 0 0 0 0 0 0 0 0 0 0 0 0 0
54 40 0 0 0 0 0 0 20 82 72 0 0 0 21 0 0 0 0 0 0 0 0 0 0 0 0 0 0 0 0 0 0 0 0 0 0 0 0 0 0 0 0 0 0 0 0
48 38 29 0 0 0 0 0 0 30 97 0 0 0 0 0 0 0 0 0 0 0 0 0 0 0 0 0 0 0 0 0 0 0 0 0 0 0 0 0 0 0 0 0 0 0 0
44 36 35 21 0 0 0 0 0 3 89 0 0 0 0 0 0 0 0 0 0 0 0 0 0 0 0 0 0 0 0 0 0 0 0 0 0 0 0 0 0 0 0 0 0 0 0
34 30 46 36 0 0 0 0 0 9 97 0 0 1 0 0 0 0 0 0 0 0 0 0 0 0 0 0 0 0 0 0 0 2 39 7 0 0 0 0 0 0 0 0 0 0 0
34 23 19 36 0 0 0 0 0 3 79 0 0 0 0 0 0 0 0 0 0 0 0 0 0 0 0 0 0 0 5 20 68 88 83 86 49 25 0 0 0 0 0 0 0 0 0
29 26 16 21 0 0 0 0 75 101 11 0 0 0 0 0 0 0 0 0 0 0 0 0 0 0 0 0 0 0 14 30 56 77 67 63 7 3 1 0 0 0 0 0 0 0 0
21 24 12 13 23 0 0 4 12 85 0 0 0 0 0 0 0 0 0 0 0 0 0 0 0 0 0 0 0 0 0 1 4 1 0 0 0 0 0 0 0 0 0 0 0 0 0
12 26 16 9 15 12 0 0 0 10 50 0 0 1 0 0 0 0 0 0 0 0 0 0 0 0 0 0 0 0 0 0 0 0 0 0 0 0 0 0 0 0 0 0 0 0 0
0 15 11 6 6 8 3 0 0 0 3 1 0 0 3 0 5 2 1 0 0 0 0 0 0 0 0 0 0 0 0 0 0 0 0 0 0 0 0 0 0 0 0 0 0 0 0
17 6 0 0 3 4 3 0 0 0 0 0 0 0 0 1 0 1 0 0 0 0 0 0 0 0 0 0 0 0 0 0 0 0 0 0 0 0 0 0 0 0 0 0 0 0 0
39 16 0 0 5 4 1 0 0 0 0 0 0 1 0 0 0 0 0 0 0 0 0 0 0 0 6 0 0 0 0 0 0 0 0 0 0 0 0 0 0 0 0 0 0 0 0

GFSGBSN_con_mucape_204.txt.gz
CAPE
53 56 48 58 56 52 49 47 48 49 51 40 41 50 42 26 0 0 0 0 0 0 3 2 0 0 0 0 0 0 0 0 0 0 0 0 0 0 0 0 0 0 0 0 0 0 0
40 50 51 59 59 50 52 49 60 27 45 52 34 36 46 28 6 0 0 0 0 0 2 2 0 0 0 0 0 0 0 0 0 0 0 0 0 0 0 0 0 0 0 0 0 0 0
13 35 56 69 41 2 1 36 47 60 29 34 48 28 30 36 18 0 2 1 0 0 4 2 0 0 0 0 0 0 0 0 0 0 0 0 0 0 0 0 0 0 0 0 0 0 0
4 10 23 51 74 49 33 16 1 35 56 20 29 43 30 29 21 6 0 8 1 0 3 5 1 0 1 0 0 0 0 0 0 0 0 0 0 0 0 0 0 0 0 0 0 0 0
50 21 21 49 69 70 66 33 14 3 42 50 19 29 35 34 13 0 0 13 3 10 0 13 10 4 2 0 0 0 0 0 0 0 0 0 0 0 0 0 0 0 0 0 0 0 0
61 57 32 30 40 60 0 53 38 21 23 38 49 25 29 39 14 1 0 0 16 12 1 20 15 4 0 0 0 0 0 0 0 0 0 0 0 0 0 0 0 0 0 0 0 0 0
66 62 31 33 39 50 44 0 55 44 18 20 33 46 34 31 50 10 0 0 79 40 1 0 0 0 0 0 0 0 0 0 0 0 0 0 0 0 0 0 0 0 0 0 0 0 0
45 52 31 42 34 44 46 48 65 54 45 20 14 34 37 42 58 30 39 9 32 10 1 0 2 1 0 0 0 0 0 0 0 0 0 0 0 0 0 0 0 0 0 0 0 0 0
51 42 33 45 67 53 56 55 64 50 30 11 1 25 30 39 44 94 45 0 7 44 8 0 0 1 0 0 0 0 0 0 0 0 0 0 0 0 0 0 0 0 0 0 0 0 0
67 28 26 46 78 43 60 47 58 59 46 20 2 20 25 29 55 70 35 0 0 70 43 1 0 0 1 0 0 0 0 0 0 0 0 0 0 0 0 0 0 0 0 0 0 0 0
81 25 20 40 7 58 4 48 50 41 31 32 10 25 21 41 40 61 0 10 9 98 0 0 0 0 0 0 0 0 0 0 0 0 0 0 0 0 0 0 0 0 0 0 0 0 0
89 38 25 40 62 103 76 66 51 31 21 28 12 42 35 87 144 3 26 30 103 48 0 0 18 0 0 0 0 0 0 0 0 0 0 0 0 0 0 0 0 0 0 0 0 0 0
72 69 47 48 69 88 0 0 48 4 19 24 13 55 89 165 5 53 90 151 34 0 0 0 29 0 0 0 0 0 0 0 0 0 0 0 0 0 0 0 0 0 0 0 0 0 0
21 58 62 49 56 0 0 0 0 0 19 3 16 48 79 100 103 129 173 95 0 20 0 0 2 6 0 0 0 0 0 0 0 0 0 0 0 0 0 0 0 0 0 0 0 0 0
24 23 41 67 45 0 0 0 0 0 2 5 75 192 135 86 136 151 119 0 1 25 0 0 0 16 0 0 0 0 0 0 0 0 0 0 0 0 0 0 0 0 0 0 0 0 0
34 30 27 47 48 23 0 0 0 0 2 0 178 145 77 146 142 34 6 0 44 3 0 0 0 0 0 0 0 0 0 0 0 0 0 0 0 0 0 0 0 0 0 0 0 0 0
30 29 28 32 39 51 0 0 0 1 0 48 82 153 42 162 48 20 0 62 3 0 0 0 2 0 0 0 0 0 0 0 0 0 0 0 0 0 0 0 0 0 0 0 0 0 0
31 28 36 39 28 34 0 0 0 0 6 65 26 29 38 6 24 0 24 0 1 0 0 0 0 7 0 0 0 0 0 0 0 0 0 0 0 0 0 0 0 0 0 0 0 0 0
32 32 28 24 26 23 0 0 0 0 7 8 0 3 0 1 21 0 0 16 8 1 0 0 0 0 16 0 0 0 0 0 0 0 0 0 0 0 0 0 0 0 0 0 0 0 0
32 29 21 29 20 29 11 0 0 0 0 2 10 16 0 5 1 6 2 8 5 3 0 0 0 0 0 0 0 0 0 0 0 0 0 0 0 0 0 0 0 0 0 0 0 2 0
23 6 29 33 33 32 24 0 0 0 0 0 0 1 0 0 2 27 33 10 17 17 2 0 0 0 0 46 0 0 0 0 0 0 0 0 0 0 0 0 0 0 0 0 0 0 0
0 23 33 33 33 25 15 0 0 0 0 0 0 0 0 37 0 34 56 15 10 14 63 0 0 0 0 9 73 0 0 0 0 0 0 0 0 0 0 0 0 0 0 0 0 0 0
7 25 44 58 32 21 16 0 0 0 0 0 0 0 15 0 17 6 4 0 0 8 96 26 2 0 79 0 52 22 17 3 2 0 0 0 1 0 0 0 0 20 0 0 0 0 0
30 30 45 64 19 11 15 0 0 0 11 0 0 69 31 126 50 5 19 17 5 17 50 41 29 84 71 53 192 192 172 102 113 4 12 1 0 50 58 10 0 0 0 0 0 0 0
0 34 39 36 13 12 23 0 0 0 0 0 85 244 9 22 29 35 43 35 0 17 67 56 14 4 241 242 182 141 23 174 187 109 23 7 33 99 0 0 0 29 0 0 0 0 0
27 24 31 31 7 11 19 0 0 0 0 75 117 159 76 46 54 0 3 0 0 5 0 0 2 3 256 179 82 18 193 77 0 0 81 60 115 149 0 0 0 0 0 0 0 0 0
26 27 28 15 10 16 9 20 0 0 0 77 97 55 14 0 0 0 0 0 0 0 0 0 92 96 177 50 33 0 91 15 0 0 0 0 0 0 0 0 0 0 0 0 0 0 0
48 41 18 11 13 11 6 29 14 0 0 0 0 0 3 0 0 0 0 0 0 0 0 0 0 0 0 0 0 0 0 0 0 0 0 0 0 0 0 0 0 0 0 0 0 8 0
41 37 7 7 8 9 27 49 15 0 0 0 0 0 0 0 0 0 0 12 0 13 0 0 0 0 0 0 0 0 0 0 0 0 0 0 0 48 0 0 0 0 0 0 22 22 0

GFSGBSN_con_mucape_207.txt.gz
CAPE
19 14 31 35 24 31 22 15 23 42 41 39 32 33 40 29 47 0 0 0 0 0 0 0 0 0 0 0 0 0 0 0 0 0 0 0 0 0 0 0 0 0 0 0 0 0 0
32 5 4 16 24 10 12 3 0 17 26 46 31 26 33 41 46 25 0 0 0 0 0 0 0 0 0 0 0 0 0 0 0 0 0 0 0 0 0 0 0 0 0 0 0 0 0
29 44 7 0 4 21 14 7 4 2 2 0 50 26 18 31 38 30 9 0 0 0 0 0 0 0 0 0 0 0 0 0 0 0 0 0 0 0 0 0 0 0 0 0 0 0 0
12 35 52 39 32 44 28 28 30 22 20 1 4 46 13 10 31 30 11 0 3 4 0 0 1 4 1 0 0 0 0 0 0 0 0 0 0 0 0 0 0 0 0 0 0 0 0
7 6 41 50 34 47 43 46 57 38 44 27 10 30 36 8 23 32 10 0 0 14 11 0 9 23 0 0 0 0 0 0 0 0 0 0 0 0 0 0 0 0 0 0 0 0 0
63 10 36 53 12 12 31 52 65 56 56 50 26 21 42 31 25 29 10 0 0 17 25 10 0 20 0 0 0 0 0 0 0 0 0 0 0 0 0 0 0 0 0 0 0 0 0
66 71 35 60 11 15 36 58 73 61 64 57 53 29 19 38 39 34 23 19 0 1 39 0 0 0 0 0 0 0 0 0 0 0 0 0 0 0 0 0 0 0 0 0 0 0 0
60 59 70 54 15 25 43 65 67 66 60 52 53 40 17 16 42 51 51 18 0 49 9 21 23 0 0 0 0 0 0 0 0 0 0 0 0 0 0 0 0 0 0 0 0 0 0
19 34 76 63 21 38 65 58 71 68 67 63 56 41 28 0 42 86 43 1 0 90 96 23 6 0 0 0 0 0 0 0 0 0 0 0 0 0 0 0 0 0 0 0 0 0 0
12 46 86 73 33 55 64 54 60 61 69 60 50 48 20 0 45 61 34 7 9 52 1 35 34 36 4 0 0 0 0 0 0 0 0 0 0 0 0 0 0 0 0 0 0 0 0
23 14 81 81 62 58 54 52 58 58 56 53 12 26 16 15 26 55 1 33 51 59 0 2 56 12 1 6 0 0 0 0 0 0 0 0 0 0 0 0 0 0 0 0 0 0 0
50 9 20 65 67 64 67 82 86 84 41 52 20 26 19 32 167 3 52 61 85 13 0 47 96 15 38 24 2 0 0 0 0 0 0 0 0 0 0 0 0 0 0 0 0 0 0
58 29 9 10 35 54 51 64 94 0 0 16 13 39 45 34 13 81 106 81 110 0 2 1 61 45 15 5 12 0 0 0 0 0 0 0 0 0 0 0 0 0 0 0 0 0 0
56 38 34 17 19 43 53 73 99 0 0 0 1 35 40 18 273 348 89 47 0 17 0 32 96 76 43 20 15 6 2 0 0 0 0 0 0 0 0 0 0 0 0 0 0 0 0
35 24 28 33 28 40 48 84 0 0 0 0 1 111 125 30 298 149 69 2 41 10 0 0 103 80 62 41 52 37 8 0 0 0 0 0 0 0 0 0 0 0 0 0 0 0 0
41 19 29 27 32 41 44 76 0 0 0 0 9 93 30 103 188 91 19 43 47 0 0 0 1 61 108 76 58 61 26 3 0 0 0 0 0 0 0 0 0 0 0 0 0 0 0
24 33 29 26 26 27 37 49 0 0 0 0 39 57 27 280 123 23 0 0 10 0 3 0 19 27 8 110 89 78 26 0 0 0 0 0 0 0 0 0 0 0 0 0 0 0 0
32 37 31 28 25 25 31 33 0 0 0 12 0 1 67 362 47 8 27 1 20 1 0 31 63 64 105 91 142 179 97 33 0 0 0 0 0 0 0 0 0 0 0 0 0 0 0
30 38 31 28 28 29 28 30 31 0 0 0 0 0 16 485 27 4 20 1 78 78 37 38 53 11 8 29 85 37 163 8 8 1 0 0 0 0 0 3 7 0 0 0 0 0 0
26 25 30 32 30 29 23 29 22 0 0 0 2 0 15 105 0 61 2 162 89 67 48 31 42 28 22 8 19 34 70 22 31 20 0 12 0 0 0 0 0 0 0 0 0 0 0
29 23 28 39 35 42 30 14 20 0 0 0 0 0 60 9 4 34 27 44 144 101 53 82 107 95 28 0 0 9 28 71 44 27 52 189 70 0 0 0 0 0 0 0 0 0 0
26 27 27 56 67 46 17 10 12 0 0 0 0 0 2 170 26 5 4 40 88 175 144 75 106 94 42 46 0 0 60 113 61 42 28 243 122 26 0 0 0 0 0 0 0 0 0
0 22 33 56 75 27 9 8 6 0 0 0 0 8 0 0 324 15 35 59 101 175 235 165 159 190 85 7 9 0 0 2 13 306 159 277 75 108 0 0 0 0 0 0 0 0 0
0 5 33 38 58 25 7 10 14 0 0 0 0 0 0 0 202 145 19 70 137 206 329 229 251 231 157 3 0 33 1 8 20 47 151 299 120 87 93 5 0 0 0 0 0 0 0
0 30 36 39 33 20 10 5 12 1 4 0 1 0 101 0 57 31 32 120 326 283 281 332 258 237 135 182 144 13 11 17 32 170 252 304 196 178 168 122 0 0 0 0 0 0 0
17 31 40 27 22 18 6 7 19 1 0 0 5 0 75 107 2 4 79 97 319 358 402 283 221 181 307 275 149 10 39 15 292 48 163 201 283 258 167 212 0 0 0 0 0 6 0
27 39 30 16 17 17 22 23 12 23 0 0 4 57 94 80 59 36 18 62 42 86 73 236 263 311 394 266 19 45 5 82 29 34 76 139 215 153 158 216 53 0 0 1 128 4 0
41 42 34 19 22 30 43 25 10 13 0 0 6 1 48 102 92 75 12 0 0 0 0 0 66 158 105 87 37 56 384 508 192 199 136 31 61 83 146 208 35 0 0 56 71 48 0
48 35 26 27 38 41 55 35 23 0 1 0 0 0 0 6 7 0 0 0 0 0 0 0 21 111 1 10 2 200 0 330 223 335 207 133 92 69 31 13 0 0 15 58 76 1 0

GFSGBSN_con_mucape_210.txt.gz
CAPE
10 29 31 4 2 10 18 27 16 6 2 0 2 3 27 16 17 21 16 0 0 0 0 0 10 0 0 0 0 0 0 0 0 0 0 0 0 0 0 0 0 0 0 0 0 0 0
8 18 38 47 8 2 5 15 12 17 14 3 2 0 9 46 42 37 30 0 0 0 0 0 16 1 0 0 0 0 0 0 0 0 0 0 0 0 0 0 0 0 0 0 0 0 0
24 16 12 33 51 33 3 14 0 1 33 27 9 1 0 34 45 40 39 15 0 0 0 0 9 30 10 0 0 0 0 0 0 0 0 0 0 0 0 0 0 0 0 0 0 0 0
41 38 17 11 31 35 34 30 13 10 38 30 35 18 6 8 36 32 42 22 0 0 4 5 0 39 23 0 0 0 0 0 0 0 0 0 0 0 0 0 0 0 0 0 0 0 0
26 42 44 21 21 30 54 40 49 31 38 64 65 49 23 12 29 28 31 30 2 0 3 11 1 16 3 0 0 0 0 0 0 0 0 0 0 0 0 0 0 0 0 0 0 0 0
22 28 47 51 51 37 9 23 59 72 62 65 68 64 48 15 30 32 27 41 16 3 0 40 8 6 1 0 0 0 0 0 0 0 0 0 0 0 0 0 0 0 0 0 0 0 0
39 24 46 54 52 52 10 13 78 66 50 73 65 66 56 36 20 37 44 35 3 0 1 12 13 0 0 0 0 0 0 0 0 0 0 0 0 0 0 0 0 0 0 0 0 0 0
43 37 21 22 62 61 22 14 66 70 54 58 78 80 73 46 26 38 67 32 0 68 11 0 24 35 0 4 0 0 0 0 0 0 0 0 0 0 0 0 0 0 0 0 0 0 0
43 41 21 46 67 73 60 50 45 84 89 61 72 58 58 52 39 47 60 8 0 28 56 29 47 17 6 8 0 0 0 0 0 0 0 0 0 0 0 0 0 0 0 0 0 0 0
46 48 33 16 56 77 76 65 54 64 77 97 86 62 41 53 38 8 17 15 14 114 12 0 51 40 43 41 4 0 0 0 0 0 0 0 0 0 0 0 0 0 0 0 0 0 0
55 55 52 24 10 26 37 53 64 67 64 64 81 53 17 66 24 4 0 57 164 60 0 0 0 3 6 21 0 0 0 0 0 0 0 0 0 0 0 0 0 0 0 0 0 0 0
49 56 56 52 20 14 24 48 57 54 44 58 79 12 21 78 94 10 87 93 75 36 0 0 9 0 33 13 9 0 0 0 0 0 0 0 0 0 0 0 0 0 0 0 0 0 0
49 54 43 34 34 28 18 30 54 47 53 86 0 0 5 79 15 33 175 65 68 0 0 0 44 39 13 4 17 20 10 0 0 0 0 0 0 0 0 0 0 0 0 0 0 0 0
44 51 50 30 34 33 33 42 84 67 104 13 0 1 1 70 130 198 183 92 0 22 0 0 0 87 52 9 27 24 30 13 5 0 0 0 0 0 0 0 0 0 0 0 0 0 0
38 47 38 32 36 39 45 29 65 80 34 0 0 9 42 62 279 140 149 20 115 20 0 0 0 0 44 76 39 56 71 39 0 0 0 0 0 0 0 0 0 0 1 0 0 0 0
34 22 19 41 40 39 32 37 57 64 0 0 0 0 10 141 337 78 99 17 19 11 0 0 0 1 108 57 80 72 61 10 18 0 0 0 0 0 0 0 0 0 0 0 0 0 0
33 17 22 40 39 37 40 37 47 53 0 0 1 42 29 334 358 65 23 3 4 21 0 0 0 0 3 92 108 106 62 0 0 10 0 0 0 0 0 0 0 0 0 0 0 0 0
27 18 26 35 32 33 43 33 32 36 0 0 4 16 56 488 3 0 32 13 12 5 10 3 34 0 18 41 126 144 103 48 6 4 25 0 0 0 0 0 0 0 0 0 0 0 0
22 27 31 31 36 37 47 45 31 39 16 0 0 14 21 347 0 0 3 37 23 27 76 83 119 111 46 22 86 66 54 8 33 121 80 10 0 0 0 0 2 7 0 0 0 0 0
28 33 31 30 36 39 54 59 31 11 25 0 0 0 5 31 33 10 6 16 29 27 92 148 162 152 134 132 129 78 24 62 73 37 44 76 68 10 0 0 0 1 0 0 0 0 0
28 32 27 31 37 40 45 39 11 9 16 0 0 0 0 28 2 22 83 9 40 63 142 216 211 242 191 187 81 86 50 0 0 4 50 46 11 36 22 0 0 0 5 0 0 0 0
35 25 22 27 42 46 66 47 16 10 14 0 0 0 0 0 3 0 16 10 89 66 118 89 172 177 235 222 156 41 0 7 1 0 6 160 75 84 136 0 0 21 3 3 0 0 0
30 16 21 30 53 42 42 22 14 6 26 0 0 0 0 0 3 1 0 3 11 216 213 268 198 158 210 226 286 203 188 61 51 37 37 77 50 110 5 57 27 6 19 28 1 0 0
0 14 35 42 45 26 14 13 17 10 33 5 0 0 0 0 0 3 25 31 42 178 252 241 388 359 219 220 281 343 251 84 107 24 26 43 35 20 10 80 0 27 0 0 15 30 0
0 24 35 43 25 17 12 8 15 39 41 46 0 0 0 0 0 0 26 23 129 164 219 308 232 172 392 366 324 206 133 157 42 7 7 0 40 28 19 36 19 22 0 0 0 0 0
0 8 43 33 20 22 27 25 31 51 28 23 0 0 0 0 0 15 48 71 148 357 343 309 374 484 474 192 269 81 42 71 4 0 0 0 19 69 34 81 3 0 0 0 0 0 0
0 13 40 28 28 32 35 37 41 44 12 39 0 0 0 0 0 90 82 85 193 293 288 350 463 501 555 331 8 192 185 24 49 5 3 53 26 21 24 69 62 0 0 0 0 0 0
0 22 38 36 27 23 38 51 30 34 32 6 0 0 0 0 0 105 65 0 22 8 67 115 174 138 292 113 207 160 319 190 122 32 13 1 1 34 19 123 38 0 0 0 0 0 0
0 0 22 35 31 39 26 34 23 12 28 5 51 0 0 0 0 0 0 0 0 0 0 0 1 27 432 441 333 186 163 281 115 0 0 0 1 32 105 52 0 0 0 0 183 500 204

GFSGBSN_con_mucape_213.txt.gz
CAPE
8 7 8 19 33 22 2 1 4 11 0 0 3 0 0 0 13 27 24 23 2 0 0 0 0 0 3 0 0 0 0 0 0 0 0 0 0 0 0 0 0 0 0 0 0 0 0
32 25 18 6 18 24 27 2 0 14 18 7 38 22 5 0 0 30 30 31 20 0 0 0 0 3 9 0 0 0 0 0 0 0 0 0 0 0 0 0 0 0 0 0 0 0 0
22 35 33 37 4 18 28 14 0 3 14 17 39 45 29 0 0 15 33 30 30 4 0 0 0 0 29 0 0 0 0 0 0 0 0 0 0 0 0 0 0 0 0 0 0 0 0
21 24 34 45 52 56 30 22 11 0 31 30 38 59 42 27 9 7 30 21 23 28 6 0 4 6 0 0 0 0 0 0 0 0 0 0 0 0 0 0 0 0 0 0 0 0 0
34 41 27 39 47 51 49 47 57 21 29 39 46 50 50 41 22 11 32 25 22 37 31 0 8 14 1 0 0 0 0 0 0 0 0 0 0 0 0 0 0 0 0 0 0 0 0
36 45 33 33 30 56 52 58 67 76 49 48 48 55 58 44 38 17 29 36 14 28 12 2 0 27 11 0 0 0 0 0 0 0 0 0 0 0 0 0 0 0 0 0 0 0 0
31 35 37 25 14 35 55 56 57 90 44 44 49 53 76 73 49 27 38 27 3 0 0 0 0 12 0 0 0 0 0 0 0 0 0 0 0 0 0 0 0 0 0 0 0 0 0
33 32 42 30 15 42 59 58 52 54 35 47 67 71 88 64 67 43 49 34 0 1 6 0 0 24 2 3 0 0 0 0 0 0 0 0 0 0 0 0 0 0 0 0 0 0 0
32 32 42 47 40 13 39 55 48 52 49 60 67 75 74 77 63 36 10 0 0 2 31 0 0 0 30 16 3 0 0 0 0 0 0 0 0 0 0 0 0 0 0 0 0 0 0
33 31 44 46 47 26 8 10 17 34 56 62 56 89 86 81 8 7 2 0 0 28 12 0 0 0 0 7 1 0 0 0 0 0 0 0 0 0 0 0 0 0 0 0 0 0 0
24 26 44 43 49 42 32 12 16 23 51 57 91 68 88 66 41 25 0 0 59 98 0 0 0 0 0 0 0 0 0 2 0 0 0 0 0 0 0 0 0 0 0 0 0 0 0
21 28 37 42 37 16 23 30 18 32 46 49 78 74 92 33 22 1 25 57 142 62 0 0 0 8 26 0 0 0 2 0 0 0 0 0 0 0 0 0 0 0 0 0 0 0 0
31 31 34 44 38 17 27 27 35 27 35 48 60 86 71 70 35 29 21 48 76 0 0 0 0 47 5 0 5 9 5 0 0 0 0 0 0 0 0 0 0 0 0 0 0 0 0
31 26 35 25 12 33 43 46 45 43 61 44 97 57 0 0 13 13 44 45 4 0 0 0 0 25 4 0 6 2 13 27 2 0 0 0 0 0 0 0 0 0 0 0 0 0 0
28 29 25 15 22 46 42 41 29 58 70 70 0 0 0 0 0 48 74 19 3 0 0 0 0 0 11 12 12 41 44 0 0 0 0 0 0 0 0 0 0 0 0 0 0 0 0
21 34 22 17 34 42 27 41 51 52 64 65 0 0 0 0 68 78 56 20 0 8 0 0 0 0 0 66 59 45 23 0 0 1 0 0 0 0 0 0 0 0 0 0 0 0 0
23 33 22 21 25 27 44 47 46 49 42 50 0 0 7 41 93 86 5 0 1 0 1 0 0 0 0 0 28 55 107 1 0 0 0 0 0 0 0 0 0 0 0 0 0 0 0
32 28 28 30 20 29 42 43 47 55 48 34 0 0 5 46 34 41 8 0 0 0 16 2 83 0 0 0 8 104 46 47 52 19 10 1 0 0 0 0 0 0 0 0 0 0 0
0 8 16 23 19 34 41 49 55 43 26 30 0 0 0 33 4 0 0 19 17 4 1 13 29 9 1 1 11 3 0 150 167 53 25 12 14 0 0 0 0 0 0 1 0 0 0
0 30 29 21 29 33 42 48 58 15 21 26 0 0 0 23 11 0 1 0 31 8 4 11 34 27 6 9 23 14 46 11 153 15 38 41 27 11 0 0 0 0 0 0 0 0 0
0 7 36 0 28 30 40 48 67 18 20 26 0 0 0 0 9 4 0 0 12 31 12 9 52 46 32 23 0 10 69 78 0 11 48 58 1 45 26 0 0 0 0 0 1 0 0
0 0 0 25 37 44 47 67 62 18 17 1 0 0 0 0 0 0 0 0 0 2 24 4 6 0 15 31 4 1 55 43 5 0 3 0 13 0 1 16 0 1 0 3 0 0 0
0 0 4 37 35 45 30 23 30 20 28 0 5 2 0 0 0 0 0 0 0 0 0 15 14 76 56 63 64 14 69 14 6 3 50 91 55 8 16 0 13 18 1 0 0 1 0
0 0 18 36 49 28 20 21 22 28 40 18 18 21 0 0 0 0 0 0 4 1 2 0 19 50 0 2 18 82 63 41 45 2 0 2 2 0 18 1 8 0 0 0 0 0 0
0 0 0 38 37 20 25 30 41 41 53 37 29 41 0 0 0 0 0 0 0 0 34 0 0 0 1 116 133 25 0 4 0 0 0 0 0 35 0 0 0 0 0 1 0 0 0
0 0 0 32 40 33 21 22 27 35 51 26 9 27 0 0 0 0 0 0 0 0 0 1 0 27 112 143 70 23 6 0 0 0 0 0 0 21 0 0 0 0 0 0 1 0 0
0 0 0 0 41 32 19 14 4 18 44 29 2 9 0 0 0 0 0 0 0 0 17 12 0 0 42 62 52 14 12 7 3 0 0 0 0 24 0 0 0 0 0 0 10 0 0
0 0 0 0 25 29 33 18 3 6 12 30 0 0 12 0 0 0 0 0 0 11 20 15 81 39 106 42 28 0 2 0 9 0 1 0 50 42 4 0 0 0 0 7 0 0 0
0 0 0 0 0 17 15 17 6 5 5 23 6 3 31 2 0 0 0 5 0 0 0 1 22 71 41 47 1 3 14 18 0 0 0 18 2 1 45 1 0 0 0 0 0 4 0

GFSGBSN_con_mucape_216.txt.gz
CAPE
29 26 22 18 5 16 30 33 12 1 0 0 1 3 3 1 0 0 7 34 32 38 9 0 0 0 0 0 0 0 0 0 0 0 0 0 0 0 0 0 0 0 0 0 0 0 0
19 13 28 31 35 6 15 18 3 3 3 2 15 15 21 7 1 1 0 24 40 33 24 0 0 0 0 0 0 0 0 0 0 0 0 0 0 0 0 0 0 0 0 0 0 0 0
27 30 19 25 33 41 33 22 4 1 2 11 25 41 40 17 2 1 0 7 32 33 32 7 0 0 0 0 0 0 0 0 0 0 0 0 0 0 0 0 0 0 0 0 0 0 0
8 25 31 19 24 31 34 27 25 4 1 18 38 35 55 36 31 31 17 0 28 27 41 15 0 0 0 0 0 0 0 0 0 0 0 0 0 0 0 0 0 0 0 0 0 0 0
13 28 30 27 22 18 26 41 44 19 3 19 39 44 56 53 46 36 33 11 28 28 40 41 0 3 0 7 0 0 0 0 0 0 0 0 0 0 0 0 0 0 0 0 0 0 0
12 24 26 27 16 12 25 39 44 47 20 15 22 33 69 62 60 48 31 29 14 42 14 39 8 0 0 4 0 0 0 0 0 0 0 0 0 0 0 0 0 0 0 0 0 0 0
25 22 23 26 27 13 18 46 42 42 44 30 29 36 54 93 86 54 34 10 18 0 5 0 0 0 0 0 0 0 0 0 0 0 0 0 0 0 0 0 0 0 0 0 0 0 0
24 22 19 24 28 27 9 12 23 15 5 13 35 48 37 75 105 67 48 34 28 26 0 0 0 0 0 13 0 0 0 0 0 0 0 0 0 0 0 0 0 0 0 0 0 0 0
20 24 21 28 39 37 44 13 3 6 11 14 23 38 33 60 66 45 40 15 1 9 27 0 0 0 0 0 0 0 0 0 0 0 0 0 0 0 0 0 0 0 0 0 0 0 0
20 16 14 31 34 38 20 29 22 13 18 22 32 44 73 81 13 32 23 0 0 36 0 0 0 0 0 0 0 4 0 0 0 0 0 0 0 0 0 0 0 0 0 0 0 0 0
20 15 21 29 37 38 19 13 22 22 26 37 35 36 77 81 19 11 28 35 11 65 0 0 0 0 0 0 0 0 0 15 0 0 0 0 0 0 0 0 0 0 0 0 0 0 0
17 23 26 28 35 34 20 22 27 30 28 14 29 43 75 0 35 0 1 45 47 32 0 0 0 2 4 0 0 0 52 2 0 0 0 0 0 0 0 0 0 0 0 0 0 0 0
21 24 21 26 21 4 24 40 35 20 14 15 38 21 24 38 5 0 42 50 24 0 0 0 0 69 1 0 0 0 51 26 6 6 0 0 0 0 0 0 0 0 0 0 0 0 0
22 25 24 25 14 11 32 23 38 20 28 28 58 41 0 0 0 0 1 21 0 0 0 0 0 40 32 15 1 0 0 48 18 23 0 0 0 0 0 0 0 0 0 0 0 0 0
0 13 32 23 19 20 31 22 32 61 60 58 51 0 0 0 0 7 13 13 0 0 0 0 0 0 74 72 91 41 0 21 10 9 0 0 0 0 0 0 0 0 0 0 0 0 0
0 29 31 27 25 21 27 37 47 56 54 50 0 0 3 5 0 0 5 0 0 0 0 0 0 0 0 52 48 97 53 0 0 8 0 0 0 0 0 0 0 0 0 0 0 0 0
0 2 23 28 26 19 30 36 47 76 39 31 0 0 0 29 19 24 0 0 0 0 0 2 0 0 0 1 77 86 75 8 23 0 29 1 5 0 0 0 0 0 0 0 0 0 0
0 0 0 10 27 1 25 44 56 66 41 8 0 0 0 0 50 17 0 9 0 0 0 2 16 22 0 0 0 0 4 53 171 90 51 7 30 0 0 0 0 0 0 0 0 0 0
0 0 0 29 0 4 27 41 55 69 27 28 0 0 0 0 1 0 2 6 4 6 31 6 0 2 24 25 17 7 0 0 24 1 60 5 86 6 0 0 0 0 0 0 0 0 0
0 0 0 32 0 20 25 36 55 67 13 27 0 0 0 0 7 3 0 0 12 10 3 1 7 7 4 0 15 3 3 9 1 19 54 10 21 52 0 0 0 0 0 0 0 0 0
0 0 0 0 0 40 48 53 65 43 14 42 0 0 0 0 0 0 0 0 0 7 16 21 3 0 0 13 16 4 0 0 14 95 78 68 6 0 8 23 4 0 1 0 0 0 1
0 0 0 0 33 38 59 37 29 30 26 0 0 0 0 0 0 0 0 0 0 0 0 0 5 0 7 6 0 0 0 0 0 44 65 58 0 0 0 14 11 1 0 0 0 0 0
0 0 0 0 30 44 29 23 27 27 18 0 0 18 0 0 0 0 0 0 0 0 0 0 23 20 18 0 0 0 24 3 22 17 55 33 30 0 0 0 0 0 0 2 0 0 0
0 0 0 0 0 37 24 28 36 47 35 14 3 0 0 0 0 0 0 0 0 0 0 0 0 0 0 1 14 8 1 0 4 0 10 6 29 13 0 0 0 2 0 2 9 1 4
0 0 0 0 0 44 29 25 31 32 41 26 24 18 0 0 0 0 0 0 0 0 0 0 0 0 0 7 35 0 0 0 0 0 0 3 25 27 0 0 0 0 0 0 10 0 0
0 0 0 0 0 0 34 28 27 24 29 24 18 35 1 0 0 0 0 0 0 0 0 0 0 0 22 0 5 5 0 0 0 0 0 0 1 17 10 0 1 0 0 0 0 0 0
0 0 0 0 0 0 11 29 33 31 28 29 8 18 11 0 0 0 0 0 0 0 0 0 12 0 20 0 41 36 2 0 20 0 0 0 11 10 6 0 0 0 0 0 0 0 0
0 0 0 0 0 0 0 13 16 34 34 27 6 0 20 0 0 0 0 0 0 0 0 0 0 12 36 33 32 26 1 20 40 0 0 1 0 0 2 0 0 0 0 0 0 0 0
0 0 0 0 0 0 0 0 14 21 22 27 0 0 11 3 0 0 0 0 0 0 0 0 0 0 10 3 8 0 21 0 0 0 0 0 1 0 0 0 0 0 0 0 0 0 0

GFSGBSN_con_mucape_219.txt.gz
CAPE
14 6 14 31 36 30 19 16 0 0 0 0 0 2 9 15 16 5 12 10 0 19 7 1 4 0 0 0 0 0 0 0 0 0 0 0 0 0 0 0 0 0 0 0 0 0 0
0 20 13 10 24 26 37 29 19 7 0 0 1 24 19 24 26 6 5 13 13 16 23 0 17 4 7 0 0 0 0 0 0 0 0 0 0 0 0 0 0 0 0 0 0 0 0
0 2 2 0 1 18 31 33 25 22 7 0 9 16 30 30 24 16 14 15 18 18 31 15 20 4 0 0 0 0 0 0 0 0 0 0 0 0 0 0 0 0 0 0 0 0 0
0 0 25 0 0 0 0 0 29 36 22 5 6 12 27 33 28 19 22 28 19 0 34 22 33 6 0 0 0 0 0 0 0 0 0 0 0 0 0 0 0 0 0 0 0 0 0
0 0 0 0 0 0 0 0 36 42 39 23 5 7 40 57 60 56 51 44 14 5 33 45 15 0 0 0 0 0 0 0 0 0 0 0 0 0 0 0 0 0 0 0 0 0 0
26 20 22 22 22 18 0 0 41 43 38 31 25 25 15 55 63 61 61 41 8 10 16 49 22 0 0 0 0 0 0 0 0 0 0 0 0 0 0 0 0 0 0 0 0 0 0
20 18 18 16 20 24 27 22 19 24 30 28 22 20 24 39 44 58 20 16 0 0 4 0 0 0 0 0 0 0 0 0 0 0 0 0 0 0 0 0 0 0 0 0 0 0 0
0 16 15 9 12 23 24 28 25 6 6 13 10 9 11 22 21 30 20 10 24 18 0 0 0 0 0 0 0 0 0 0 0 0 0 0 0 0 0 0 0 0 0 0 0 0 0
0 0 0 0 22 27 31 17 8 12 12 5 8 20 23 25 10 1 9 10 11 23 0 0 0 0 0 0 0 0 0 0 0 0 0 0 0 0 0 0 0 0 0 0 0 0 0
0 0 0 17 24 29 31 29 13 16 17 16 29 21 49 56 0 10 1 44 35 34 0 0 0 0 0 0 0 0 0 0 0 0 0 0 0 0 0 0 0 0 0 0 0 0 0
0 0 23 21 23 27 25 16 20 25 21 27 10 3 43 42 0 0 16 62 43 45 0 0 0 0 0 0 0 0 0 18 0 0 0 0 0 0 0 0 0 0 0 0 0 0 0
0 0 11 17 20 16 2 16 39 30 20 17 9 9 31 0 0 0 0 59 50 41 0 0 0 0 0 0 0 0 0 20 5 5 23 0 0 0 0 0 0 0 0 0 0 0 0
0 0 0 23 20 10 0 23 15 10 20 34 32 19 7 0 0 0 12 2 8 0 0 0 0 0 0 0 0 0 0 3 6 17 10 0 0 0 0 0 0 0 0 0 0 0 0
0 0 0 19 22 17 0 2 22 23 36 36 53 54 0 0 0 0 18 5 0 0 0 0 0 73 18 0 0 0 0 48 11 50 10 0 0 0 0 0 0 0 0 0 0 0 0
0 0 0 0 25 21 0 22 19 46 55 58 47 0 0 1 0 0 0 0 0 0 1 0 0 0 22 36 26 8 0 0 40 55 49 3 0 0 0 0 0 0 0 0 0 0 0
0 0 0 0 0 3 0 0 25 37 56 34 0 0 1 4 0 0 0 0 0 4 24 9 0 0 0 18 39 64 15 0 0 32 77 10 0 0 0 0 0 0 0 0 0 0 0
0 0 0 0 0 0 0 0 28 43 33 13 0 0 1 14 0 0 0 0 14 7 3 26 43 0 0 0 2 64 17 9 35 1 72 64 59 5 4 1 0 0 0 0 0 0 0
0 0 0 0 0 0 0 0 30 41 44 1 0 0 0 1 0 0 0 0 13 0 1 0 3 1 16 7 0 0 0 1 94 46 49 9 56 8 10 0 0 0 0 0 0 0 0
0 0 0 0 0 0 0 22 37 43 16 0 0 0 0 0 0 0 0 0 0 4 12 12 7 24 14 9 13 0 17 8 17 77 26 60 66 28 21 10 3 25 0 0 0 0 0
0 0 0 0 0 0 34 45 68 79 14 2 0 0 0 0 0 0 0 0 0 0 0 8 2 10 12 0 3 3 0 2 28 80 122 4 9 21 0 1 1 0 2 0 0 0 0
0 0 0 0 0 0 39 55 34 38 16 3 0 0 0 0 0 0 0 0 0 0 0 18 7 0 0 0 0 0 0 0 0 14 165 40 0 8 0 70 25 0 0 1 17 3 0
0 0 0 0 0 0 19 27 16 40 33 0 0 0 0 0 0 0 0 0 0 0 0 0 0 0 0 0 0 0 0 1 1 8 81 97 0 0 0 0 8 0 1 15 5 12 12
0 0 0 0 0 0 19 19 31 39 21 0 0 0 0 0 0 0 0 0 0 0 0 0 0 0 0 0 4 17 21 2 5 9 0 27 2 0 0 95 0 0 0 12 3 28 6
0 0 0 0 0 0 0 22 29 48 29 1 0 0 0 0 0 0 0 0 0 0 0 0 0 0 0 1 0 0 0 0 0 0 5 1 6 0 0 0 0 0 0 0 1 2 6
0 0 0 0 0 0 0 0 16 20 37 17 4 0 0 0 0 0 0 0 0 0 0 0 0 0 0 0 0 0 0 1 0 0 0 0 0 0 0 0 0 0 0 0 0 0 0
0 0 0 0 0 0 0 0 3 33 32 28 12 23 0 0 0 0 0 0 0 0 0 0 0 0 0 0 0 0 0 0 0 0 0 0 0 0 0 0 0 0 0 0 0 0 0
0 0 0 0 0 0 0 0 0 16 36 24 0 14 0 0 0 0 0 0 0 0 0 0 0 9 7 0 0 0 0 0 0 0 0 0 0 0 0 0 0 0 0 0 0 0 0
0 0 0 0 0 0 0 0 0 0 18 28 0 9 21 0 0 0 0 0 0 0 0 0 0 0 0 1 6 0 0 0 1 0 0 0 0 0 0 0 0 0 0 0 0 0 0
0 0 0 0 0 0 0 0 0 0 2 22 0 6 12 0 0 0 0 0 0 0 0 0 0 0 0 2 0 16 1 12 0 3 0 3 0 0 0 0 0 0 0 0 0 0 0